START_TIME,STEP,MOV.,M29,t_acc.,H22,t_acc.,H26,t_acc.,H30,t_acc.
1979-07-08 00:00:56.480 ,1,1,0.,24.0,0.,24.0,0.,24.0,0.,24.0
1979-07-08 00:01:20.480 ,1,0,0.,24.0,0.,24.0,0.,24.0,0.,24.0
1979-07-08 00:01:44.480 ,2,1,0.,24.0,0.,24.0,0.,24.0,0.,24.0
1979-07-08 00:02:08.480 ,2,0,0.,24.0,0.,24.0,0.,24.0,0.,24.0
1979-07-08 00:02:32.480 ,3,1,0.,24.0,0.,24.0,0.,24.0,0.,24.0
1979-07-08 00:02:56.480 ,3,0,0.,24.0,0.,24.0,0.,24.0,0.,24.0
1979-07-08 00:03:20.480 ,4,1,0.,24.0,0.,24.0,0.,24.0,0.,24.0
1979-07-08 00:03:44.480 ,4,0,0.,24.0,0.,24.0,0.,24.0,0.,24.0
1979-07-08 00:04:08.480 ,5,1,0.,24.0,0.,24.0,0.,24.0,0.,24.0
1979-07-08 00:04:32.480 ,5,0,0.,24.0,0.,24.0,0.,24.0,0.,24.0
1979-07-08 00:04:56.480 ,6,1,0.,24.0,0.,24.0,0.,24.0,0.,24.0
1979-07-08 00:05:20.480 ,6,0,0.,24.0,0.,24.0,0.,24.0,0.,24.0
1979-07-08 00:05:44.480 ,7,1,0.,24.0,0.,24.0,0.,24.0,0.,24.0
1979-07-08 00:06:08.480 ,7,0,0.,24.0,0.,24.0,0.,24.0,0.,24.0
1979-07-08 00:06:32.480 ,7,1,0.,24.0,0.,24.0,0.,24.0,0.,24.0
1979-07-08 00:06:56.480 ,7,0,0.,24.0,0.,24.0,0.,24.0,0.,24.0
1979-07-08 00:07:20.480 ,6,1,0.,24.0,0.,24.0,0.,24.0,0.,24.0
1979-07-08 00:07:44.480 ,6,0,0.,24.0,0.,24.0,0.,24.0,0.,24.0
1979-07-08 00:08:08.480 ,5,1,0.,24.0,0.,24.0,0.,24.0,0.,24.0
1979-07-08 00:08:32.480 ,5,0,0.,24.0,0.,24.0,0.,24.0,0.,24.0
1979-07-08 00:08:56.480 ,4,1,0.,24.0,0.,24.0,0.,24.0,0.,24.0
1979-07-08 00:09:20.480 ,4,0,0.,24.0,0.,24.0,0.,24.0,0.,24.0
1979-07-08 00:09:44.480 ,3,1,0.,24.0,0.,24.0,0.,24.0,0.,24.0
1979-07-08 00:10:08.480 ,3,0,0.,24.0,0.,24.0,0.,24.0,0.,24.0
1979-07-08 00:10:32.480 ,2,1,0.,24.0,0.,24.0,0.,24.0,0.,24.0
1979-07-08 00:10:56.480 ,2,0,0.,24.0,0.,24.0,0.,24.0,0.,24.0
1979-07-08 00:11:20.480 ,1,1,0.,24.0,0.,24.0,0.,24.0,0.,24.0
1979-07-08 00:11:44.480 ,1,0,0.,24.0,0.,24.0,0.,24.0,0.,24.0
1979-07-08 00:12:08.480 ,0,1,0.,24.0,0.,24.0,0.,24.0,0.,24.0
1979-07-08 00:12:32.480 ,0,0,0.,24.0,0.,24.0,0.,24.0,0.,24.0
1979-07-08 00:12:56.480 ,0,1,0.,24.0,0.,24.0,0.,24.0,0.,24.0
1979-07-08 00:13:20.480 ,0,0,0.,24.0,0.,24.0,0.,24.0,0.,24.0
1979-07-08 00:13:44.480 ,1,1,0.,24.0,0.,24.0,0.,24.0,0.,24.0
1979-07-08 00:14:08.480 ,1,0,0.,24.0,0.,24.0,0.,24.0,0.,24.0
1979-07-08 00:14:32.480 ,2,1,0.,24.0,0.,24.0,0.,24.0,0.,24.0
1979-07-08 00:14:56.480 ,2,0,0.,24.0,0.,24.0,0.,24.0,0.,24.0
1979-07-08 00:15:20.480 ,3,1,0.,24.0,0.,24.0,0.,24.0,0.,24.0
1979-07-08 00:15:44.480 ,3,0,0.,24.0,0.,24.0,0.,24.0,0.,24.0
1979-07-08 00:16:08.480 ,4,1,0.,24.0,0.,24.0,0.,24.0,0.,24.0
1979-07-08 00:16:32.480 ,4,0,0.,24.0,0.,24.0,0.,24.0,0.,24.0
1979-07-08 00:16:56.480 ,5,1,0.,24.0,0.,24.0,0.,24.0,0.,24.0
1979-07-08 00:17:20.480 ,5,0,0.,24.0,0.,24.0,0.,24.0,0.,24.0
1979-07-08 00:17:44.480 ,6,1,0.,24.0,0.,24.0,0.,24.0,0.,24.0
1979-07-08 00:18:08.480 ,6,0,0.,24.0,0.,24.0,0.,24.0,0.,24.0
1979-07-08 00:18:32.480 ,7,1,0.,24.0,0.,24.0,0.,24.0,0.,24.0
1979-07-08 00:18:56.480 ,7,0,0.,24.0,0.,24.0,0.,24.0,0.,24.0
1979-07-08 00:19:20.480 ,7,1,0.,24.0,0.,24.0,0.,24.0,0.,24.0
1979-07-08 00:19:44.480 ,7,0,0.,24.0,0.,24.0,0.,24.0,0.,24.0
1979-07-08 00:20:08.480 ,6,1,0.,24.0,0.,24.0,0.,24.0,0.,24.0
1979-07-08 00:20:32.480 ,6,0,0.,24.0,0.,24.0,0.,24.0,0.,24.0
1979-07-08 00:20:56.480 ,5,1,0.,24.0,0.,24.0,0.,24.0,0.,24.0
1979-07-08 00:21:20.480 ,5,0,0.,24.0,0.,24.0,0.,24.0,0.,24.0
1979-07-08 00:21:44.480 ,4,1,0.,24.0,0.,24.0,0.,24.0,0.,24.0
1979-07-08 00:22:08.480 ,4,0,0.,24.0,0.,24.0,0.,24.0,0.,24.0
1979-07-08 00:22:32.480 ,3,1,0.,24.0,0.,24.0,0.,24.0,0.,24.0
1979-07-08 00:22:56.480 ,3,0,0.,24.0,0.,24.0,0.,24.0,0.,24.0
1979-07-08 00:23:20.480 ,2,1,0.,24.0,0.,24.0,0.,24.0,0.,24.0
1979-07-08 00:23:44.480 ,2,0,0.,24.0,0.,24.0,0.,24.0,0.,24.0
1979-07-08 00:24:08.480 ,1,1,0.,24.0,0.,24.0,0.,24.0,0.,24.0
1979-07-08 00:24:32.480 ,1,0,0.,24.0,0.,24.0,0.,24.0,0.,24.0
1979-07-08 00:24:56.480 ,0,1,0.,24.0,0.,24.0,0.,24.0,0.,24.0
1979-07-08 00:25:20.480 ,0,0,0.,24.0,0.,24.0,0.,24.0,0.,24.0
1979-07-08 00:25:44.480 ,0,1,0.,24.0,0.,24.0,0.,24.0,0.,24.0
1979-07-08 00:26:08.480 ,0,0,0.,24.0,0.,24.0,0.,24.0,0.,24.0
1979-07-08 00:26:32.480 ,1,1,0.,24.0,0.,24.0,0.,24.0,0.,24.0
1979-07-08 00:26:56.480 ,1,0,0.,24.0,0.,24.0,0.,24.0,0.,24.0
1979-07-08 00:27:20.480 ,2,1,0.,24.0,0.,24.0,0.,24.0,0.,24.0
1979-07-08 00:27:44.480 ,2,0,0.,24.0,0.,24.0,0.,24.0,0.,24.0
1979-07-08 00:28:08.480 ,3,1,0.,24.0,0.,24.0,0.,24.0,0.,24.0
1979-07-08 00:28:32.480 ,3,0,0.,24.0,0.,24.0,0.,24.0,0.,24.0
1979-07-08 00:28:56.480 ,4,1,0.,24.0,0.,24.0,0.,24.0,0.,24.0
1979-07-08 00:29:20.480 ,4,0,0.,24.0,0.,24.0,0.,24.0,0.,24.0
1979-07-08 00:29:44.480 ,5,1,0.,24.0,0.,24.0,0.,24.0,0.,24.0
1979-07-08 00:30:08.480 ,5,0,0.,24.0,0.,24.0,0.,24.0,0.,24.0
1979-07-08 00:30:32.480 ,6,1,0.,24.0,0.,24.0,0.,24.0,0.,24.0
1979-07-08 00:30:56.480 ,6,0,0.,24.0,0.,24.0,0.,24.0,0.,24.0
1979-07-08 00:31:20.480 ,7,1,0.,24.0,0.,24.0,0.,24.0,0.,24.0
1979-07-08 00:31:44.480 ,7,0,0.,24.0,0.,24.0,0.,24.0,0.,24.0
1979-07-08 00:32:08.480 ,7,1,0.,24.0,0.,24.0,0.,24.0,0.,24.0
1979-07-08 00:32:32.480 ,7,0,0.,24.0,0.,24.0,0.,24.0,0.,24.0
1979-07-08 00:32:56.480 ,6,1,0.,24.0,0.,24.0,0.,24.0,0.,24.0
1979-07-08 00:33:20.480 ,6,0,0.,24.0,0.,24.0,0.,24.0,0.,24.0
1979-07-08 00:33:44.480 ,5,1,0.,24.0,0.,24.0,0.,24.0,0.,24.0
1979-07-08 00:34:08.480 ,5,0,0.,24.0,0.,24.0,0.,24.0,0.,24.0
1979-07-08 00:34:32.480 ,4,1,0.,24.0,0.,24.0,0.,24.0,0.,24.0
1979-07-08 00:34:56.480 ,4,0,0.,24.0,0.,24.0,0.,24.0,0.,24.0
1979-07-08 00:35:20.480 ,3,1,0.,24.0,0.,24.0,0.,24.0,0.,24.0
1979-07-08 00:35:44.480 ,3,0,0.,24.0,0.,24.0,0.,24.0,0.,24.0
1979-07-08 00:36:08.480 ,2,1,0.,24.0,0.,24.0,0.,24.0,0.,24.0
1979-07-08 00:36:32.480 ,2,0,0.,24.0,0.,24.0,0.,24.0,0.,24.0
1979-07-08 00:36:56.480 ,1,1,0.,24.0,0.,24.0,0.,24.0,0.,24.0
1979-07-08 00:37:20.480 ,1,0,0.,24.0,0.,24.0,0.,24.0,0.,24.0
1979-07-08 00:37:44.480 ,0,1,0.,24.0,0.,24.0,0.,24.0,0.,24.0
1979-07-08 00:38:08.480 ,0,0,0.,24.0,0.,24.0,0.,24.0,0.,24.0
1979-07-08 00:38:32.480 ,0,1,0.,24.0,0.,24.0,0.,24.0,0.,24.0
1979-07-08 00:38:56.480 ,0,0,0.,24.0,0.,24.0,0.,24.0,0.,24.0
1979-07-08 00:39:20.480 ,1,1,0.,24.0,0.,24.0,0.,24.0,0.,24.0
1979-07-08 00:39:44.480 ,1,0,0.,24.0,0.,24.0,0.,24.0,0.,24.0
1979-07-08 00:40:08.480 ,2,1,0.,24.0,0.,24.0,0.,24.0,0.,24.0
1979-07-08 00:40:32.480 ,2,0,0.,24.0,0.,24.0,0.,24.0,0.,24.0
1979-07-08 00:40:56.480 ,3,1,0.,24.0,0.,24.0,0.,24.0,0.,24.0
1979-07-08 00:41:20.480 ,3,0,0.,24.0,0.,24.0,0.,24.0,0.,24.0
1979-07-08 00:41:44.480 ,4,1,0.,24.0,0.,24.0,0.,24.0,0.,24.0
1979-07-08 00:42:08.480 ,4,0,0.,24.0,0.,24.0,0.,24.0,0.,24.0
1979-07-08 00:42:32.480 ,5,1,0.,24.0,0.,24.0,0.,24.0,0.,24.0
1979-07-08 00:42:56.480 ,5,0,0.,24.0,0.,24.0,0.,24.0,0.,24.0
1979-07-08 00:43:20.480 ,6,1,0.,24.0,0.,24.0,0.,24.0,0.,24.0
1979-07-08 00:43:44.480 ,6,0,0.,24.0,0.,24.0,0.,24.0,0.,24.0
1979-07-08 00:44:08.480 ,7,1,0.,24.0,0.,24.0,0.,24.0,0.,24.0
1979-07-08 00:44:32.480 ,7,0,0.,24.0,0.,24.0,0.,24.0,0.,24.0
1979-07-08 00:44:56.480 ,7,1,0.,24.0,0.,24.0,0.,24.0,0.,24.0
1979-07-08 00:45:20.480 ,7,0,0.,24.0,0.,24.0,0.,24.0,0.,24.0
1979-07-08 00:45:44.480 ,6,1,0.,24.0,0.,24.0,0.,24.0,0.,24.0
1979-07-08 00:46:08.480 ,6,0,0.,24.0,0.,24.0,0.,24.0,0.,24.0
1979-07-08 00:46:32.480 ,5,1,0.,24.0,0.,24.0,0.,24.0,0.,24.0
1979-07-08 00:46:56.480 ,5,0,0.,24.0,0.,24.0,0.,24.0,0.,24.0
1979-07-08 00:47:20.480 ,4,1,0.,24.0,0.,24.0,0.,24.0,0.,24.0
1979-07-08 00:47:44.480 ,4,0,0.,24.0,0.,24.0,0.,24.0,0.,24.0
1979-07-08 00:48:08.480 ,3,1,0.,24.0,0.,24.0,0.,24.0,0.,24.0
1979-07-08 00:48:32.480 ,3,0,0.,24.0,0.,24.0,0.,24.0,0.,24.0
1979-07-08 00:48:56.480 ,2,1,0.,24.0,0.,24.0,0.,24.0,0.,24.0
1979-07-08 00:49:20.480 ,2,0,0.,24.0,0.,24.0,0.,24.0,0.,24.0
1979-07-08 00:49:44.480 ,1,1,0.,24.0,0.,24.0,0.,24.0,0.,24.0
1979-07-08 00:50:08.480 ,1,0,0.,24.0,0.,24.0,0.,24.0,0.,24.0
1979-07-08 00:50:32.480 ,0,1,0.,24.0,0.,24.0,0.,24.0,0.,24.0
1979-07-08 00:50:56.480 ,0,0,0.,24.0,0.,24.0,0.,24.0,0.,24.0
1979-07-08 00:51:20.480 ,0,1,0.,24.0,0.,24.0,0.,24.0,0.,24.0
1979-07-08 00:51:44.480 ,0,0,0.,24.0,0.,24.0,0.,24.0,0.,24.0
1979-07-08 00:52:08.480 ,1,1,0.,24.0,0.,24.0,0.,24.0,0.,24.0
1979-07-08 00:52:32.480 ,1,0,0.,24.0,0.,24.0,0.,24.0,0.,24.0
1979-07-08 00:52:56.480 ,0,0,0.,24.0,0.,24.0,0.,24.0,0.,24.0
1979-07-08 00:53:20.480 ,0,0,,0,,0,,0,,0
1979-07-08 00:53:20.480 ,2,0,0.,24.0,0.,24.0,0.,24.0,0.,24.0
1979-07-08 00:53:44.480 ,3,1,0.,24.0,0.,24.0,0.,24.0,0.,24.0
1979-07-08 00:54:08.480 ,3,0,0.,24.0,0.,24.0,0.,24.0,0.,24.0
1979-07-08 00:54:32.480 ,4,1,0.,24.0,0.,24.0,0.,24.0,0.,24.0
1979-07-08 00:54:56.480 ,4,0,0.,24.0,0.,24.0,0.,24.0,0.,24.0
1979-07-08 00:55:20.480 ,5,1,0.,24.0,0.,24.0,0.,24.0,0.,24.0
1979-07-08 00:55:44.480 ,5,0,0.,24.0,0.,24.0,0.,24.0,0.,24.0
1979-07-08 00:56:08.480 ,6,1,0.,24.0,0.,24.0,0.,24.0,0.,24.0
1979-07-08 00:56:32.480 ,6,0,0.,24.0,0.,24.0,0.,24.0,0.,24.0
1979-07-08 00:56:56.480 ,7,1,0.,24.0,0.,24.0,0.,24.0,0.,24.0
1979-07-08 00:57:20.480 ,7,0,0.,24.0,0.,24.0,0.,24.0,0.,24.0
1979-07-08 00:57:44.480 ,7,1,0.,24.0,0.,24.0,0.,24.0,0.,24.0
1979-07-08 00:58:08.480 ,7,0,0.,24.0,0.,24.0,0.,24.0,0.,24.0
1979-07-08 00:58:32.480 ,6,1,0.,24.0,0.,24.0,0.,24.0,0.,24.0
1979-07-08 00:58:56.480 ,6,0,0.,24.0,0.,24.0,0.,24.0,0.,24.0
1979-07-08 00:59:20.480 ,5,1,0.,24.0,0.,24.0,0.,24.0,0.,24.0
1979-07-08 00:59:44.480 ,5,0,0.,24.0,0.,24.0,0.,24.0,0.,24.0
1979-07-08 01:00:08.480 ,4,1,0.,24.0,0.,24.0,0.,24.0,0.,24.0
1979-07-08 01:00:32.480 ,4,0,0.,24.0,0.,24.0,0.,24.0,0.,24.0
1979-07-08 01:00:56.480 ,3,1,0.,24.0,0.,24.0,0.,24.0,0.,24.0
1979-07-08 01:01:20.480 ,3,0,0.,24.0,0.,24.0,0.,24.0,0.,24.0
1979-07-08 01:01:44.480 ,2,1,0.,24.0,0.,24.0,0.,24.0,0.,24.0
1979-07-08 01:02:08.480 ,2,0,0.,24.0,0.,24.0,0.,24.0,0.,24.0
1979-07-08 01:02:32.480 ,1,1,0.,24.0,0.,24.0,0.,24.0,0.,24.0
1979-07-08 01:02:56.480 ,1,0,0.,24.0,0.,24.0,0.,24.0,0.,24.0
1979-07-08 01:03:20.480 ,0,1,0.,24.0,0.,24.0,0.,24.0,0.,24.0
1979-07-08 01:03:44.480 ,0,0,0.,24.0,0.,24.0,0.,24.0,0.,24.0
1979-07-08 01:04:08.480 ,0,1,0.,24.0,0.,24.0,0.,24.0,0.,24.0
1979-07-08 01:04:32.480 ,0,0,0.,24.0,0.,24.0,0.,24.0,0.,24.0
1979-07-08 01:04:56.480 ,1,1,0.,24.0,0.,24.0,0.,24.0,0.,24.0
1979-07-08 01:05:20.480 ,1,0,0.,24.0,0.,24.0,0.,24.0,0.,24.0
1979-07-08 01:05:44.480 ,2,1,0.,24.0,0.,24.0,0.,24.0,0.,24.0
1979-07-08 01:06:08.480 ,2,0,0.,24.0,0.,24.0,0.,24.0,0.,24.0
1979-07-08 01:06:32.480 ,3,1,0.,24.0,0.,24.0,0.,24.0,0.,24.0
1979-07-08 01:06:56.480 ,3,0,0.,24.0,0.,24.0,0.,24.0,0.,24.0
1979-07-08 01:07:20.480 ,4,1,0.,24.0,0.,24.0,0.,24.0,0.,24.0
1979-07-08 01:07:44.480 ,4,0,0.,24.0,0.,24.0,0.,24.0,0.,24.0
1979-07-08 01:08:08.480 ,5,1,0.,24.0,0.,24.0,0.,24.0,0.,24.0
1979-07-08 01:08:32.480 ,5,0,0.,24.0,0.,24.0,0.,24.0,0.,24.0
1979-07-08 01:08:56.480 ,6,1,0.,24.0,0.,24.0,0.,24.0,0.,24.0
1979-07-08 01:09:20.480 ,6,0,0.,24.0,0.,24.0,0.,24.0,0.,24.0
1979-07-08 01:09:44.480 ,7,1,0.,24.0,0.,24.0,0.,24.0,0.,24.0
1979-07-08 01:10:08.480 ,7,0,0.,24.0,0.,24.0,0.,24.0,0.,24.0
1979-07-08 01:10:32.480 ,7,1,0.,24.0,0.,24.0,0.,24.0,0.,24.0
1979-07-08 01:10:56.480 ,7,0,0.,24.0,0.,24.0,0.,24.0,0.,24.0
1979-07-08 01:11:20.480 ,6,1,0.,24.0,0.,24.0,0.,24.0,0.,24.0
1979-07-08 01:11:44.480 ,6,0,0.,24.0,0.,24.0,0.,24.0,0.,24.0
1979-07-08 01:12:08.480 ,5,1,0.,24.0,0.,24.0,0.,24.0,0.,24.0
1979-07-08 01:12:32.480 ,5,0,0.,24.0,0.,24.0,0.,24.0,0.,24.0
1979-07-08 01:12:56.480 ,4,1,0.,24.0,0.,24.0,0.,24.0,0.,24.0
1979-07-08 01:13:20.480 ,4,0,0.,24.0,0.,24.0,0.,24.0,0.,24.0
1979-07-08 01:13:44.480 ,3,1,0.,24.0,0.,24.0,0.,24.0,0.,24.0
1979-07-08 01:14:08.480 ,3,0,0.,24.0,0.,24.0,0.,24.0,0.,24.0
1979-07-08 01:14:32.480 ,2,1,0.,24.0,0.,24.0,0.,24.0,0.,24.0
1979-07-08 01:14:56.480 ,2,0,0.,24.0,0.,24.0,0.,24.0,0.,24.0
1979-07-08 01:15:20.480 ,1,1,0.,24.0,0.,24.0,0.,24.0,0.,24.0
1979-07-08 01:15:44.480 ,1,0,0.,24.0,0.,24.0,0.,24.0,0.,24.0
1979-07-08 01:16:08.480 ,0,1,0.,24.0,0.,24.0,0.,24.0,0.,24.0
1979-07-08 01:16:32.480 ,0,0,0.,24.0,0.,24.0,0.,24.0,0.,24.0
1979-07-08 01:16:56.480 ,0,1,0.,24.0,0.,24.0,0.,24.0,0.,24.0
1979-07-08 01:17:20.480 ,0,0,0.,24.0,0.,24.0,0.,24.0,0.,24.0
1979-07-08 01:17:44.480 ,1,1,0.,24.0,0.,24.0,0.,24.0,0.,24.0
1979-07-08 01:18:08.480 ,1,0,0.,24.0,0.,24.0,0.,24.0,0.,24.0
1979-07-08 01:18:32.480 ,2,1,0.,24.0,0.,24.0,0.,24.0,0.,24.0
1979-07-08 01:18:56.480 ,2,0,0.,24.0,0.,24.0,0.,24.0,0.,24.0
1979-07-08 01:19:20.480 ,3,1,0.,24.0,0.,24.0,0.,24.0,0.,24.0
1979-07-08 01:19:44.480 ,3,0,0.,24.0,0.,24.0,0.,24.0,0.,24.0
1979-07-08 01:20:08.480 ,4,1,0.,24.0,0.,24.0,0.,24.0,0.,24.0
1979-07-08 01:20:32.480 ,4,0,0.,24.0,0.,24.0,0.,24.0,0.,24.0
1979-07-08 01:20:56.480 ,5,1,0.,24.0,0.,24.0,0.,24.0,0.,24.0
1979-07-08 01:21:20.480 ,5,0,0.,24.0,0.,24.0,0.,24.0,0.,24.0
1979-07-08 01:21:44.480 ,6,1,0.,24.0,0.,24.0,0.,24.0,0.,24.0
1979-07-08 01:22:08.480 ,6,0,0.,24.0,0.,24.0,0.,24.0,0.,24.0
1979-07-08 01:22:32.480 ,7,1,0.,24.0,0.,24.0,0.,24.0,0.,24.0
1979-07-08 01:22:56.480 ,7,0,0.,24.0,0.,24.0,0.,24.0,0.,24.0
1979-07-08 01:23:20.480 ,7,1,0.,24.0,0.,24.0,0.,24.0,0.,24.0
1979-07-08 01:23:44.480 ,7,0,0.,24.0,0.,24.0,0.,24.0,0.,24.0
1979-07-08 01:24:08.480 ,6,1,0.,24.0,0.,24.0,0.,24.0,0.,24.0
1979-07-08 01:24:32.480 ,6,0,0.,24.0,0.,24.0,0.,24.0,0.,24.0
1979-07-08 01:24:56.480 ,5,1,0.,24.0,0.,24.0,0.,24.0,0.,24.0
1979-07-08 01:25:20.480 ,0,0,0.,24.0,0.,24.0,0.,24.0,0.,24.0
1979-07-08 01:25:44.480 ,4,1,0.,24.0,0.,24.0,0.,24.0,0.,24.0
1979-07-08 01:26:08.480 ,4,0,0.,24.0,0.,24.0,0.,24.0,0.,24.0
1979-07-08 01:26:32.480 ,3,1,0.,24.0,0.,24.0,0.,24.0,0.,24.0
1979-07-08 01:26:56.480 ,3,0,0.,24.0,0.,24.0,0.,24.0,0.,24.0
1979-07-08 01:27:20.480 ,2,1,0.,24.0,0.,24.0,0.,24.0,0.,24.0
1979-07-08 01:27:44.480 ,2,0,0.,24.0,0.,24.0,0.,24.0,0.,24.0
1979-07-08 01:28:08.480 ,1,1,0.,24.0,0.,24.0,0.,24.0,0.,24.0
1979-07-08 01:28:32.480 ,1,0,0.,24.0,0.,24.0,0.,24.0,0.,24.0
1979-07-08 01:28:56.480 ,0,1,0.,24.0,0.,24.0,0.,24.0,0.,24.0
1979-07-08 01:29:20.480 ,0,0,0.,24.0,0.,24.0,0.,24.0,0.,24.0
1979-07-08 01:29:44.480 ,0,1,0.,24.0,0.,24.0,0.,24.0,0.,24.0
1979-07-08 01:30:08.480 ,0,0,0.,24.0,0.,24.0,0.,24.0,0.,24.0
1979-07-08 01:30:32.480 ,1,1,0.,24.0,0.,24.0,0.,24.0,0.,24.0
1979-07-08 01:30:56.480 ,1,0,0.,24.0,0.,24.0,0.,24.0,0.,24.0
1979-07-08 01:31:20.480 ,2,1,0.,24.0,0.,24.0,0.,24.0,0.,24.0
1979-07-08 01:31:44.480 ,2,0,0.,24.0,0.,24.0,0.,24.0,0.,24.0
1979-07-08 01:32:08.480 ,3,1,0.,24.0,0.,24.0,0.,24.0,0.,24.0
1979-07-08 01:32:32.480 ,3,0,0.,24.0,0.,24.0,0.,24.0,0.,24.0
1979-07-08 01:32:56.480 ,4,1,0.,24.0,0.,24.0,0.,24.0,0.,24.0
1979-07-08 01:33:20.480 ,4,0,0.,24.0,0.,24.0,0.,24.0,0.,24.0
1979-07-08 01:33:44.480 ,5,1,0.,24.0,0.,24.0,0.,24.0,0.,24.0
1979-07-08 01:34:08.480 ,5,0,0.,24.0,0.,24.0,0.,24.0,0.,24.0
1979-07-08 01:34:32.480 ,6,1,0.,24.0,0.,24.0,0.,24.0,0.,24.0
1979-07-08 01:34:56.480 ,6,0,0.,24.0,0.,24.0,0.,24.0,0.,24.0
1979-07-08 01:35:20.480 ,7,1,0.,24.0,0.,24.0,0.,24.0,0.,24.0
1979-07-08 01:35:44.480 ,7,0,0.,24.0,0.,24.0,0.,24.0,0.,24.0
1979-07-08 01:36:08.480 ,7,1,0.,24.0,0.,24.0,0.,24.0,0.,24.0
1979-07-08 01:36:32.480 ,7,0,0.,24.0,0.,24.0,0.,24.0,0.,24.0
1979-07-08 01:36:56.480 ,6,1,0.,24.0,0.,24.0,0.,24.0,0.,24.0
1979-07-08 01:37:20.480 ,6,0,0.,24.0,0.,24.0,0.,24.0,0.,24.0
1979-07-08 01:37:44.480 ,5,1,0.,24.0,0.,24.0,0.,24.0,0.,24.0
1979-07-08 01:38:08.480 ,5,0,0.,24.0,0.,24.0,0.,24.0,0.,24.0
1979-07-08 01:38:32.480 ,4,1,0.,24.0,0.,24.0,0.,24.0,0.,24.0
1979-07-08 01:38:56.480 ,4,0,0.,24.0,0.,24.0,0.,24.0,0.,24.0
1979-07-08 01:39:20.480 ,3,1,0.,24.0,0.,24.0,0.,24.0,0.,24.0
1979-07-08 01:39:44.480 ,3,0,0.,24.0,0.,24.0,0.,24.0,0.,24.0
1979-07-08 01:40:08.480 ,2,1,0.,24.0,0.,24.0,0.,24.0,0.,24.0
1979-07-08 01:40:32.480 ,2,0,0.,24.0,0.,24.0,0.,24.0,0.,24.0
1979-07-08 01:40:56.480 ,1,1,0.,24.0,0.,24.0,0.,24.0,0.,24.0
1979-07-08 01:41:20.480 ,1,0,0.,24.0,0.,24.0,0.,24.0,0.,24.0
1979-07-08 01:41:44.480 ,0,1,0.,24.0,0.,24.0,0.,24.0,0.,24.0
1979-07-08 01:42:08.480 ,0,0,0.,24.0,0.,24.0,0.,24.0,0.,24.0
1979-07-08 01:42:32.480 ,0,1,0.,24.0,0.,24.0,0.,24.0,0.,24.0
1979-07-08 01:42:56.480 ,0,0,0.,24.0,0.,24.0,0.,24.0,0.,24.0
1979-07-08 01:43:20.480 ,1,1,0.,24.0,0.,24.0,0.,24.0,0.,24.0
1979-07-08 01:43:44.480 ,1,0,0.,24.0,0.,24.0,0.,24.0,0.,24.0
1979-07-08 01:44:08.480 ,2,1,0.,24.0,0.,24.0,0.,24.0,0.,24.0
1979-07-08 01:44:32.480 ,2,0,0.,24.0,0.,24.0,0.,24.0,0.,24.0
1979-07-08 01:44:56.480 ,3,1,0.,24.0,0.,24.0,0.,24.0,0.,24.0
1979-07-08 01:45:20.480 ,3,0,0.,24.0,0.,24.0,0.,24.0,0.,24.0
1979-07-08 01:45:44.480 ,4,1,0.,24.0,0.,24.0,0.,24.0,0.,24.0
1979-07-08 01:46:08.480 ,4,0,0.,24.0,0.,24.0,0.,24.0,0.,24.0
1979-07-08 01:46:32.480 ,5,1,0.,24.0,0.,24.0,0.,24.0,0.,24.0
1979-07-08 01:46:56.480 ,5,0,0.,24.0,0.,24.0,0.,24.0,0.,24.0
1979-07-08 01:47:20.480 ,6,1,0.,24.0,0.,24.0,0.,24.0,0.,24.0
1979-07-08 01:47:44.480 ,6,0,0.,24.0,0.,24.0,0.,24.0,0.,24.0
1979-07-08 01:48:08.480 ,7,1,0.,24.0,0.,24.0,0.,24.0,0.,24.0
1979-07-08 01:48:32.480 ,7,0,0.,24.0,0.,24.0,0.,24.0,0.,24.0
1979-07-08 01:48:56.480 ,7,1,0.,24.0,0.,24.0,0.,24.0,0.,24.0
1979-07-08 01:49:20.480 ,7,0,0.,24.0,0.,24.0,0.,24.0,0.,24.0
1979-07-08 01:49:44.480 ,6,1,0.,24.0,0.,24.0,0.,24.0,0.,24.0
1979-07-08 01:50:08.480 ,6,0,0.,24.0,0.,24.0,0.,24.0,0.,24.0
1979-07-08 01:50:32.480 ,5,1,0.,24.0,0.,24.0,0.,24.0,0.,24.0
1979-07-08 01:50:56.480 ,5,0,0.,24.0,0.,24.0,0.,24.0,0.,24.0
1979-07-08 01:51:20.480 ,4,1,0.,24.0,0.,24.0,0.,24.0,0.,24.0
1979-07-08 01:51:44.480 ,4,0,0.,24.0,0.,24.0,0.,24.0,0.,24.0
1979-07-08 01:52:08.480 ,3,1,0.,24.0,0.,24.0,0.,24.0,0.,24.0
1979-07-08 01:52:32.480 ,3,0,0.,24.0,0.,24.0,0.,24.0,0.,24.0
1979-07-08 01:52:56.480 ,2,1,0.,24.0,0.,24.0,0.,24.0,0.,24.0
1979-07-08 01:53:20.480 ,2,0,0.,24.0,0.,24.0,0.,24.0,0.,24.0
1979-07-08 01:53:44.480 ,1,1,0.,24.0,0.,24.0,0.,24.0,0.,24.0
1979-07-08 01:54:08.480 ,1,0,0.,24.0,0.,24.0,0.,24.0,0.,24.0
1979-07-08 01:54:32.480 ,0,1,0.,24.0,0.,24.0,0.,24.0,0.,24.0
1979-07-08 01:54:56.480 ,0,0,0.,24.0,0.,24.0,0.,24.0,0.,24.0
1979-07-08 01:55:20.480 ,0,1,0.,24.0,0.,24.0,0.,24.0,0.,24.0
1979-07-08 01:55:44.480 ,0,0,0.,24.0,0.,24.0,0.,24.0,0.,24.0
1979-07-08 01:56:08.480 ,1,1,0.,24.0,0.,24.0,0.,24.0,0.,24.0
1979-07-08 01:56:32.480 ,1,0,0.,24.0,0.,24.0,0.,24.0,0.,24.0
1979-07-08 01:56:56.480 ,2,1,0.,24.0,0.,24.0,0.,24.0,0.,24.0
1979-07-08 01:57:20.480 ,2,0,0.,24.0,0.,24.0,0.,24.0,0.,24.0
1979-07-08 01:57:44.480 ,3,1,0.,24.0,0.,24.0,0.,24.0,0.,24.0
1979-07-08 01:58:08.480 ,3,0,0.,24.0,0.,24.0,0.,24.0,0.,24.0
1979-07-08 01:58:32.480 ,4,1,0.,24.0,0.,24.0,0.,24.0,0.,24.0
1979-07-08 01:58:56.480 ,4,0,0.,24.0,0.,24.0,0.,24.0,0.,24.0
1979-07-08 01:59:20.480 ,5,1,0.,24.0,0.,24.0,0.,24.0,0.,24.0
1979-07-08 01:59:44.480 ,5,0,0.,24.0,0.,24.0,0.,24.0,0.,24.0
1979-07-08 02:00:08.480 ,6,1,0.,24.0,0.,24.0,0.,24.0,0.,24.0
1979-07-08 02:00:32.480 ,6,0,0.,24.0,0.,24.0,0.,24.0,0.,24.0
1979-07-08 02:00:56.480 ,7,1,0.,24.0,0.,24.0,0.,24.0,0.,24.0
1979-07-08 02:01:20.480 ,7,0,0.,24.0,0.,24.0,0.,24.0,0.,24.0
1979-07-08 02:01:44.480 ,7,1,0.,24.0,0.,24.0,0.,24.0,0.,24.0
1979-07-08 02:02:08.480 ,7,0,0.,24.0,0.,24.0,0.,24.0,0.,24.0
1979-07-08 02:02:32.480 ,6,1,0.,24.0,0.,24.0,0.,24.0,0.,24.0
1979-07-08 02:02:56.480 ,6,0,0.,24.0,0.,24.0,0.,24.0,0.,24.0
1979-07-08 02:03:20.480 ,5,1,0.,24.0,0.,24.0,0.,24.0,0.,24.0
1979-07-08 02:03:44.480 ,5,0,0.,24.0,0.,24.0,0.,24.0,0.,24.0
1979-07-08 02:04:08.480 ,4,1,0.,24.0,0.,24.0,0.,24.0,0.,24.0
1979-07-08 02:04:32.480 ,4,0,0.,24.0,0.,24.0,0.,24.0,0.,24.0
1979-07-08 02:04:56.480 ,3,1,0.,24.0,0.,24.0,0.,24.0,0.,24.0
1979-07-08 02:05:20.480 ,3,0,0.,24.0,0.,24.0,0.,24.0,0.,24.0
1979-07-08 02:05:44.480 ,2,1,0.,24.0,0.,24.0,0.,24.0,0.,24.0
1979-07-08 02:06:08.480 ,2,0,0.,24.0,0.,24.0,0.,24.0,0.,24.0
1979-07-08 02:06:32.480 ,1,1,0.,24.0,0.,24.0,0.,24.0,0.,24.0
1979-07-08 02:06:56.480 ,1,0,0.,24.0,0.,24.0,0.,24.0,0.,24.0
1979-07-08 02:07:20.480 ,0,1,0.,24.0,0.,24.0,0.,24.0,0.,24.0
1979-07-08 02:07:44.480 ,0,0,0.,24.0,0.,24.0,0.,24.0,0.,24.0
1979-07-08 02:08:08.480 ,0,1,0.,24.0,0.,24.0,0.,24.0,0.,24.0
1979-07-08 02:08:32.480 ,0,0,0.,24.0,0.,24.0,0.,24.0,0.,24.0
1979-07-08 02:08:56.480 ,1,1,0.,24.0,0.,24.0,0.,24.0,0.,24.0
1979-07-08 02:09:20.480 ,1,0,0.,24.0,0.,24.0,0.,24.0,0.,24.0
1979-07-08 02:09:44.480 ,2,1,0.,24.0,0.,24.0,0.,24.0,0.,24.0
1979-07-08 02:10:08.480 ,2,0,0.,24.0,0.,24.0,0.,24.0,0.,24.0
1979-07-08 02:10:32.480 ,3,1,0.,24.0,0.,24.0,0.,24.0,0.,24.0
1979-07-08 02:10:56.480 ,3,0,0.,24.0,0.,24.0,0.,24.0,0.,24.0
1979-07-08 02:11:20.480 ,4,1,0.,24.0,0.,24.0,0.,24.0,0.,24.0
1979-07-08 02:11:44.480 ,4,0,0.,24.0,0.,24.0,0.,24.0,0.,24.0
1979-07-08 02:12:08.480 ,5,1,0.,24.0,0.,24.0,0.,24.0,0.,24.0
1979-07-08 02:12:32.480 ,5,0,0.,24.0,0.,24.0,0.,24.0,0.,24.0
1979-07-08 02:12:56.480 ,6,1,0.,24.0,0.,24.0,0.,24.0,0.,24.0
1979-07-08 02:13:20.480 ,6,0,0.,24.0,0.,24.0,0.,24.0,0.,24.0
1979-07-08 02:13:44.480 ,7,1,0.,24.0,0.,24.0,0.,24.0,0.,24.0
1979-07-08 02:14:08.480 ,7,0,0.,24.0,0.,24.0,0.,24.0,0.,24.0
1979-07-08 02:14:32.480 ,7,1,0.,24.0,0.,24.0,0.,24.0,0.,24.0
1979-07-08 02:14:56.480 ,7,0,0.,24.0,0.,24.0,0.,24.0,0.,24.0
1979-07-08 02:15:20.480 ,6,1,0.,24.0,0.,24.0,0.,24.0,0.,24.0
1979-07-08 02:15:44.480 ,6,0,0.,24.0,0.,24.0,0.,24.0,0.,24.0
1979-07-08 02:16:08.480 ,5,1,0.,24.0,0.,24.0,0.,24.0,0.,24.0
1979-07-08 02:16:32.480 ,5,0,0.,24.0,0.,24.0,0.,24.0,0.,24.0
1979-07-08 02:16:56.480 ,4,1,0.,24.0,0.,24.0,0.,24.0,0.,24.0
1979-07-08 02:17:20.480 ,4,0,0.,24.0,0.,24.0,0.,24.0,0.,24.0
1979-07-08 02:17:44.480 ,3,1,0.,24.0,0.,24.0,0.,24.0,0.,24.0
1979-07-08 02:18:08.480 ,3,0,0.,24.0,0.,24.0,0.,24.0,0.,24.0
1979-07-08 02:18:32.470 ,2,1,0.,24.0,0.,24.0,0.,24.0,0.,24.0
1979-07-08 02:18:56.470 ,2,0,0.,24.0,0.,24.0,0.,24.0,0.,24.0
1979-07-08 02:19:20.470 ,1,1,0.,24.0,0.,24.0,0.,24.0,0.,24.0
1979-07-08 02:19:44.470 ,1,0,0.,24.0,0.,24.0,0.,24.0,0.,24.0
1979-07-08 02:20:08.470 ,0,1,0.,24.0,0.,24.0,0.,24.0,0.,24.0
1979-07-08 02:20:32.470 ,0,0,0.,24.0,0.,24.0,0.,24.0,0.,24.0
1979-07-08 02:20:56.470 ,0,1,0.,24.0,0.,24.0,0.,24.0,0.,24.0
1979-07-08 02:21:20.470 ,0,0,0.,24.0,0.,24.0,0.,24.0,0.,24.0
1979-07-08 02:21:44.470 ,1,1,0.,24.0,0.,24.0,0.,24.0,0.,24.0
1979-07-08 02:22:08.470 ,1,0,0.,24.0,0.,24.0,0.,24.0,0.,24.0
1979-07-08 02:22:32.470 ,2,1,0.,24.0,0.,24.0,0.,24.0,0.,24.0
1979-07-08 02:22:56.470 ,2,0,0.,24.0,0.,24.0,0.,24.0,0.,24.0
1979-07-08 02:23:20.470 ,3,1,0.,24.0,0.,24.0,0.,24.0,0.,24.0
1979-07-08 02:23:44.470 ,3,0,0.,24.0,0.,24.0,0.,24.0,0.,24.0
1979-07-08 02:24:08.470 ,4,1,0.,24.0,0.,24.0,0.,24.0,0.,24.0
1979-07-08 02:24:32.470 ,4,0,0.,24.0,0.,24.0,0.,24.0,0.,24.0
1979-07-08 02:24:56.470 ,5,1,0.,24.0,0.,24.0,0.,24.0,0.,24.0
1979-07-08 02:25:20.470 ,5,0,0.,24.0,0.,24.0,0.,24.0,0.,24.0
1979-07-08 02:25:44.470 ,6,1,0.,24.0,0.,24.0,0.,24.0,0.,24.0
1979-07-08 02:26:08.470 ,6,0,0.,24.0,0.,24.0,0.,24.0,0.,24.0
1979-07-08 02:26:32.470 ,7,1,0.,24.0,0.,24.0,0.,24.0,0.,24.0
1979-07-08 02:26:56.470 ,7,0,0.,24.0,0.,24.0,0.,24.0,0.,24.0
1979-07-08 02:27:20.470 ,7,1,0.,24.0,0.,24.0,0.,24.0,0.,24.0
1979-07-08 02:27:44.470 ,7,0,0.,24.0,0.,24.0,0.,24.0,0.,24.0
1979-07-08 02:28:08.470 ,6,1,0.,24.0,0.,24.0,0.,24.0,0.,24.0
1979-07-08 02:28:32.470 ,6,0,0.,24.0,0.,24.0,0.,24.0,0.,24.0
1979-07-08 02:28:56.470 ,5,1,0.,24.0,0.,24.0,0.,24.0,0.,24.0
1979-07-08 02:29:20.470 ,5,0,0.,24.0,0.,24.0,0.,24.0,0.,24.0
1979-07-08 02:29:44.470 ,4,1,0.,24.0,0.,24.0,0.,24.0,0.,24.0
1979-07-08 02:30:08.470 ,4,0,0.,24.0,0.,24.0,0.,24.0,0.,24.0
1979-07-08 02:30:32.470 ,3,1,0.,24.0,0.,24.0,0.,24.0,0.,24.0
1979-07-08 02:30:56.470 ,3,0,0.,24.0,0.,24.0,0.,24.0,0.,24.0
1979-07-08 02:31:20.470 ,2,1,0.,24.0,0.,24.0,0.,24.0,0.,24.0
1979-07-08 02:31:44.470 ,2,0,0.,24.0,0.,24.0,0.,24.0,0.,24.0
1979-07-08 02:32:08.470 ,1,1,0.,24.0,0.,24.0,0.,24.0,0.,24.0
1979-07-08 02:32:32.470 ,1,0,0.,24.0,0.,24.0,0.,24.0,0.,24.0
1979-07-08 02:32:56.470 ,0,1,0.,24.0,0.,24.0,0.,24.0,0.,24.0
1979-07-08 02:33:20.470 ,0,0,0.,24.0,0.,24.0,0.,24.0,0.,24.0
1979-07-08 02:33:44.470 ,0,1,0.,24.0,0.,24.0,0.,24.0,0.,24.0
1979-07-08 02:34:08.470 ,0,0,0.,24.0,0.,24.0,0.,24.0,0.,24.0
1979-07-08 02:34:32.470 ,1,1,0.,24.0,0.,24.0,0.,24.0,0.,24.0